EHI
0 0 0 0 0 0 0 0 0 0 0 0 0 0 0 0 0 0 0 0 0 0 0 0 0 0 0 0 0 0 0 0 0 0 0 0 0 0 0 0 0 0 0 0
0 0 0 0 0 0 0 0 0 0 0 0 0 0 0 0 0 0 0 0 0 0 0 0 0 0 0 0 0 0 0 0 0 0 0 0 0 0 0 0 0 0 0 0
0 0 0 0 0 0 0 0 0 0 0 0 0 0 0 0 0 0 0 0 0 0 0 0 0 0 0 0 0 0 0 0 0 0 0 0 0 0 0 0 0 0 0 0
0 0 0 0 0 0 0 0 0 0 0 0 0 0 0 0 0 0 0 0 0 0 0 0 0 0 0 0 0 0 0 0 0 0 0 0 0 0 0 0 0 0 0 0
0 0 0 0 0 0 0 0 0 0 0 0 0 0 0 0 0 0 0 0 0 0 0 0 0 0 0 0 0 0 0 0 0 0 0 0 0 0 0 0 0 0 0 0
0 0 0 0 0 0 0 0 0 0 0 0 0 0 0 0 0 0 0 0 0 0 0 0 0 0 0 0 0 0 0 0 0 0 0 0 0 0 0 0 0 0 0 0
0 0 0 0 0 0 0 0 0 0 0 0 0 0 0 0 0 0 0 0 0 0 0 0 0 0 0 0 0 0 0 0 0 0 0 0 0 0 0 0 0 0 0 0
0 0 0 0 0 0 0 0 0 0 0 0 0 0 0 0 0 0 0 0 0 0 0 0 0 0 0 0 0 0 0 0 0 0 0 0 0 0 0 0 0 0 0 0
0 0 0 0 0 0 0 0 0 0 0 0 0 0 0 0 0 0 0 0 0 0 0 0 0 0 0 0 0 0 0 0 0 0 0 0 0 0 0 0 0 0 0 0
0 0 0 0 0 0 0 0 0 0 0 0 0 0 0 0 0 0 0 0 0 0 0 0 0 0 0 0 0 0 0 0 0 0 0 0 0 0 0 0 0 0 0 0
0 0 0 0 0 0 0 0 0 0 0 0 0 0 0 0 0 0 0 0 0 0 0 0 0 0 0 0 0 0 0 0 0 0 0 0 0 0 0 0 0 0 0 0
0 0 0 0 0 0 0 0 0 0 0 0 0 0 0 0 0 0 0 0 0 0 0 0 0 0 0 0 0 0 0 0 0 0 0 0 0 0 0 0 0 0 0 0
0 0 0 0 0 0 0 0 0 0 0 0 0 0 0 0 0 0 0 0 0 0 0 0 0 0 0 0 0 0 0 0 0 0 0 0 0 0 0 0 0 0 0 0
0 0 0 0 0 0 0 0 0 0 0 0 0 0 0 0 0 0 0 0 0 0 0 0 0 0 0 0 0 0 0 0 0 0 0 0 0 0 0 0 0 0 0 0
0 0 0 0 0 0 0 0 0 0 0 0 0 0 0 0 0 0 0 0 0 0 0 0 0 0 0 0 0 0 0 0 0 0 0 0 0 0 0 0 0 0 0 0
0 0 0 0 0 0 0 0 0 0 0 0 0 0 0 0 0 0 0 0 0 0 0 0 0 0 0 0 0 0 0 0 0 0 0 0 0 0 0 0 0 0 0 0
0 0 0 0 0 0 0 0 0 0 0 0 0 0 0 0 0 0 0 0 0 0 0 0 0 0 0 0 0 0 0 0 0 0 0 0 0 0 0 0 0 0 0 0
0 0 0 0 0 0 0 0 0 0 0 0 0 0 0 0 0 0 0 0 0 0 0 0 0 0 0 0 0 0 0 0 0 0 0 0 0 0 0 0 0 0 0 0
0 0 0 0 0 0 0 0 0 0 0 0 0 0 0 0 0 0 0 0 0 0 0 0 0 0 0 0 0 0 0 0 0 0 0 0 0 0 0 0 0 0 0 0
0 0 0 0 0 0 0 0 0 0 0 0 0 0 0 0 0 0 0 0 0 0 0 0 0 0 0 0 0 0 0 0 0 0 0 0 0 0 0 0 0 0 0 0
0 0 0 0 0 0 0 0 0 0 0 0 0 0 0 0 0 0 0 0 0 0 0 0 0 0 0 0 0 0 0 0 0 0 0 0 0 0 0 0 0 0 0 0
0 0 0 0 0 0 0 0 0 0 0 0 0 0 0 0 0 0 0 0 0 0 0 0 0 0 0 0 0 0 0 0 0 0 0 0 0 0 0 0 0 0 0 0
0 0 0 0 0 0 0 0 0 0 0 0 0 0 0 0 0 0 0 0 0 0 0 0 0 0 0 0 0 0 0 0 0 0 0 0 0 0 0 0 0 0 0 0
0 0 0 0 0 0 0 0 0 0 0 0 0 0 0 0 0 0 0 0 0 0 0 0 0 0 0 0 0 0 0 0 0 0 0 0 0 0 0 0 0 0 0 0
0 0 0 0 0 0 0 0 0 0 0 0 0 0 0 0 0 0 0 0 0 0 0 0 0 0 0 0 0 0 0 0 0 0 0 0 0 0 0 0 0 0 0 0
0 0 0 0 0 0 0 0 0 0 0 0 0 0 0 0 0 0 0 0 0 0 0 0 0 0 0 0 0 0 0 0 0 0 0 0 0 0 0 0 0 0 0 0
0 0 0 0 0 0 0 0 0 0 0 0 0 0 0 0 0 0 0 0 0 0 0 0 0 0 0 0 0 0 0 0 0 0 0 0 0 0 0 0 0 0 0 0
Wind_Speed
7 7 6 7 8 8 10 9 7 6 5 5 3 3 2 2 2 2 3 2 2 2 3 3 3 3 3 3 3 3 4 5 6 5 5 4 4 4 4 5 5 4 4 3
6 7 7 9 11 11 11 12 13 12 12 6 1 1 2 2 3 4 3 3 3 3 4 4 4 4 3 3 3 3 4 5 5 4 5 5 5 4 5 5 4 4 5 4
4 4 5 9 9 11 8 7 7 10 8 3 2 2 3 4 4 4 3 3 3 4 4 5 5 4 4 4 3 3 4 5 4 5 5 5 5 5 5 5 5 5 5 5
4 5 7 5 1 1 5 6 7 6 4 3 2 3 4 4 3 2 3 4 5 4 5 5 4 4 4 3 3 4 4 5 5 5 5 5 5 5 5 4 5 5 5 5
2 4 8 4 2 2 2 4 3 4 3 2 3 4 3 2 3 3 4 4 5 5 5 5 5 4 3 3 4 4 5 5 5 5 5 5 6 6 5 4 5 5 4 5
3 4 7 2 3 2 1 3 0 1 1 1 2 3 3 3 4 5 4 4 4 4 5 5 5 3 3 4 5 5 5 5 5 5 5 6 6 6 4 4 5 4 4 5
6 6 9 1 5 3 2 3 1 1 1 1 2 4 5 6 5 5 5 5 5 5 5 5 4 3 4 5 6 6 5 5 5 5 5 6 5 4 4 4 4 4 5 5
6 7 9 4 5 4 2 0 0 1 2 3 4 5 5 6 6 6 5 5 5 4 5 5 4 4 5 6 6 4 4 5 5 5 5 4 5 4 4 4 4 5 4 4
8 9 3 5 3 2 1 1 2 2 3 4 5 6 6 6 6 5 5 5 4 5 5 5 4 4 6 7 5 4 4 5 5 5 5 4 5 5 4 4 4 4 4 4
5 6 4 4 3 2 2 2 3 3 4 4 6 6 7 6 6 5 5 5 4 5 6 6 5 5 6 6 4 4 5 6 5 5 5 4 4 4 4 5 5 5 5 5
7 7 6 5 3 2 3 3 4 4 4 4 5 7 7 6 6 5 5 4 4 5 6 7 6 6 5 5 4 5 6 5 5 5 5 4 4 5 5 5 6 6 5 4
8 5 4 4 2 3 4 4 4 4 5 5 5 6 6 6 5 5 5 5 5 6 6 7 7 7 6 5 5 5 6 5 4 4 4 4 3 4 7 8 10 11 9 7
6 3 3 4 3 3 4 4 4 4 5 6 5 5 5 6 5 5 6 6 7 7 7 7 7 8 7 5 5 6 6 6 4 4 4 4 4 4 4 5 8 10 11 11
3 3 5 4 3 3 3 4 4 5 5 5 5 5 5 6 6 6 7 7 6 7 7 7 8 9 7 5 5 6 6 7 6 5 5 4 5 4 4 4 4 4 7 11
4 3 3 3 3 3 3 3 4 5 5 5 5 5 6 6 7 8 7 7 7 7 8 7 8 9 6 5 5 6 5 4 4 4 4 4 4 4 4 5 5 4 3 5
2 2 3 4 5 4 4 4 5 5 5 6 6 6 6 6 7 8 8 7 7 8 8 8 9 8 6 5 5 5 5 8 7 4 4 4 4 4 5 5 5 5 5 4
3 4 4 4 4 4 4 4 5 6 6 7 7 7 6 7 8 8 8 7 7 8 8 8 9 8 6 5 5 4 4 5 8 5 4 5 5 5 5 5 5 5 5 5
4 4 3 4 4 5 5 5 6 6 7 7 7 7 7 8 9 10 9 8 8 9 9 8 8 7 6 5 5 4 4 4 4 5 4 5 5 5 5 5 6 6 4 5
2 3 4 4 5 5 6 7 7 7 7 7 7 8 8 9 9 10 9 8 9 11 10 7 8 7 6 6 6 4 4 5 5 5 5 7 7 5 5 5 5 5 5 4
3 4 5 5 6 6 7 7 7 8 8 7 8 9 10 10 9 8 8 9 9 9 8 8 7 6 6 6 7 4 5 5 6 5 5 5 5 5 5 6 6 5 5 5
4 5 6 7 7 8 8 8 8 9 9 8 9 10 11 11 9 8 8 10 10 8 7 9 6 5 5 6 7 4 5 5 6 6 5 5 5 6 5 5 5 5 5 5
5 6 7 7 8 9 8 7 8 9 9 9 10 10 10 11 10 9 9 10 10 10 7 5 5 7 8 8 4 5 5 6 6 5 5 5 6 6 6 5 5 5 5 5
6 7 8 8 9 9 9 9 9 9 10 10 10 10 10 10 7 8 10 8 6 9 7 6 9 12 12 7 5 5 6 7 6 6 6 6 6 6 5 6 5 5 5 5
7 8 8 8 8 8 11 12 9 8 9 10 10 10 10 9 8 8 8 10 12 12 7 9 13 14 12 5 5 6 6 6 6 6 6 5 5 5 5 5 5 4 4 5
8 8 8 8 8 9 10 10 9 9 9 8 10 10 8 7 8 8 7 8 11 11 7 9 14 14 8 5 6 6 6 6 6 5 5 5 5 5 5 5 5 4 4 5
8 8 8 9 9 8 7 6 7 7 7 7 8 7 6 6 7 7 7 8 9 11 8 6 6 8 5 6 6 6 6 6 6 6 5 5 5 5 5 5 6 5 4 4
8 8 7 7 8 7 7 7 8 8 7 7 9 8 6 6 6 6 7 7 6 6 6 6 5 5 5 5 5 5 5 5 5 5 5 5 4 4 5 5 4 4 4 4
Wind_Direction
282 285 273 259 252 229 219 222 234 253 269 281 316 333 338 343 337 325 309 305 308 304 298 294 291 281 264 251 233 219 222 230 234 232 230 227 221 219 218 218 218 217 223 230
284 258 255 262 251 242 241 237 247 267 280 286 306 326 327 336 322 305 295 299 314 315 307 298 290 283 276 263 246 225 228 237 239 233 230 225 222 219 217 220 220 217 222 224
282 310 313 269 241 219 217 219 226 243 253 298 322 326 318 301 284 284 297 319 314 303 294 292 291 286 278 268 267 249 241 242 238 233 233 230 223 219 220 220 218 221 225 223
284 314 255 241 88 159 213 233 226 243 277 322 324 313 295 289 289 314 329 321 309 298 293 291 291 290 280 273 264 257 250 246 241 232 233 230 224 225 225 220 219 222 226 225
263 277 275 251 180 150 197 266 234 234 266 312 349 326 299 359 19 337 312 302 295 293 292 290 287 283 281 277 268 261 255 249 243 234 232 229 228 228 225 220 224 223 222 222
239 251 258 246 124 92 79 260 75 116 282 323 349 308 279 340 339 318 307 296 292 291 294 289 286 289 286 278 270 262 257 253 245 236 231 229 230 231 225 219 223 220 225 223
233 249 265 224 138 128 182 224 102 44 316 301 270 256 292 319 313 306 300 296 293 290 287 281 282 284 276 272 264 260 258 255 247 239 235 232 230 225 221 218 218 221 227 230
201 223 250 162 145 190 218 135 349 327 316 302 288 289 298 299 297 298 298 296 295 291 287 285 280 274 273 269 266 264 260 256 249 242 237 233 227 226 215 207 215 225 229 238
203 219 221 167 193 203 162 266 288 291 298 297 292 291 293 294 293 291 290 291 292 287 288 287 275 264 270 273 273 272 265 259 255 247 236 228 222 223 219 209 214 223 223 234
268 264 258 240 252 265 275 276 290 297 302 301 291 293 294 292 290 289 289 290 291 290 288 287 281 270 265 273 272 268 265 262 255 247 242 231 223 216 215 213 215 219 223 230
260 273 281 257 254 300 327 319 310 306 300 291 290 291 291 290 287 285 287 285 284 280 280 284 286 280 274 272 266 265 266 263 258 246 240 236 228 222 221 221 214 218 221 218
245 253 263 287 329 338 313 299 299 302 297 291 283 285 290 288 285 285 286 286 285 279 278 283 286 283 278 270 259 260 265 261 254 247 240 233 235 251 236 230 236 235 234 232
257 284 287 293 305 308 292 293 294 285 280 286 285 281 285 285 285 284 283 282 279 279 280 282 282 280 276 266 257 253 254 257 254 246 240 233 225 227 248 250 241 242 241 242
269 283 280 277 285 299 293 290 288 280 274 273 277 281 282 282 283 281 278 277 278 280 280 279 278 277 275 266 260 257 254 253 252 244 236 232 229 227 224 230 240 243 238 240
246 242 261 294 300 296 288 283 283 281 282 283 280 277 278 281 281 281 282 283 282 278 276 277 279 280 279 268 261 260 258 253 247 244 237 233 229 227 225 229 233 235 228 234
234 245 265 274 276 281 281 277 276 280 286 286 284 278 277 277 277 279 280 276 274 277 278 278 277 277 275 264 258 259 256 255 253 246 240 237 231 229 229 229 230 230 228 221
223 242 247 259 267 277 278 272 270 276 281 282 282 285 287 287 285 283 281 275 268 269 270 271 273 275 269 257 251 254 255 256 255 251 242 237 233 232 231 228 229 231 230 221
218 227 227 238 253 270 276 275 273 273 273 274 281 285 282 279 280 283 285 286 284 281 274 266 263 266 263 257 252 249 249 250 244 244 244 242 240 233 230 231 231 233 232 229
218 233 247 254 255 258 265 270 271 271 274 276 274 273 271 271 272 276 280 282 282 283 281 267 266 265 261 257 255 247 246 248 249 247 242 247 249 238 232 232 234 232 227 221
238 248 254 259 259 254 259 265 269 271 270 268 269 271 274 273 271 272 275 273 267 262 268 272 271 263 258 256 252 243 240 244 247 248 244 241 238 237 234 234 234 233 227 223
249 254 260 263 266 263 258 260 262 266 268 264 262 265 269 273 272 269 272 278 277 266 263 267 263 257 253 249 250 242 241 245 247 247 245 242 239 237 235 234 233 231 227 224
254 256 259 261 265 269 266 257 254 259 265 266 264 264 268 273 274 270 260 259 270 273 270 262 258 257 258 257 244 243 246 248 250 248 245 240 238 238 236 232 232 231 226 222
254 256 259 260 262 267 271 267 261 259 260 262 264 264 263 265 264 266 276 270 262 267 266 258 261 265 266 260 245 245 248 249 249 247 245 241 237 236 234 231 229 227 224 220
260 262 261 262 265 268 271 271 265 259 257 260 260 257 257 265 270 256 252 267 271 273 268 265 269 269 269 256 245 244 245 246 246 246 246 243 238 234 231 227 226 224 221 220
258 260 262 263 264 263 265 268 269 266 262 262 262 258 250 242 253 266 262 261 266 273 271 270 272 271 263 248 245 245 245 243 244 244 243 243 239 234 228 223 220 218 219 220
258 259 259 254 254 259 261 261 263 265 264 268 270 264 256 249 248 256 263 262 261 268 267 265 262 262 252 246 246 245 245 249 251 247 242 243 239 232 227 222 219 218 219 219
256 257 260 263 260 252 250 250 254 259 257 257 268 270 262 258 256 259 262 263 263 262 261 259 253 249 247 246 246 244 242 240 239 241 241 238 233 229 224 220 217 214 212 212